,,,PA_Meas_PMT16A,,PR_Meas_QMR101_102,,RH_Meas_QMH101,,SR_Meas_QMS101,,TA_Meas_QMH101,,GenWind,,GenWind,
date,time,status,PA,status,PR,status,RH,status,SR,status,TA,status,DirAvg,status,SpdAvg,
2014-05-05, 00:00:04,VALID,1008.34,VALID,0,INVALID,110.65,VALID,0,VALID,24.532,VALID,360,VALID,0,
2014-05-05, 00:01:04,VALID,1008.3,VALID,0,INVALID,110.642,VALID,0,VALID,24.5533,VALID,360,VALID,0,
2014-05-05, 00:02:04,VALID,1008.29,VALID,0,INVALID,110.642,VALID,0,VALID,24.5515,VALID,360,VALID,0,
2014-05-05, 00:03:04,VALID,1008.28,VALID,0,INVALID,110.642,VALID,0,VALID,24.5923,VALID,360,VALID,0,
2014-05-05, 00:04:04,VALID,1008.25,VALID,0,INVALID,110.642,VALID,0,VALID,24.6118,VALID,360,VALID,0,
2014-05-05, 00:05:04,VALID,1008.24,VALID,0,INVALID,110.634,VALID,0,VALID,24.5905,VALID,360,VALID,0,
2014-05-05, 00:06:04,VALID,1008.23,VALID,0,INVALID,110.673,VALID,0,VALID,24.6118,VALID,360,VALID,0,
2014-05-05, 00:07:04,VALID,1008.25,VALID,0,INVALID,110.657,VALID,0,VALID,24.571,VALID,360,VALID,0,
2014-05-05, 00:08:04,VALID,1008.24,VALID,0,INVALID,110.642,VALID,0,VALID,24.5923,VALID,360,VALID,0,
2014-05-05, 00:09:04,VALID,1008.27,VALID,0,INVALID,110.642,VALID,0,VALID,24.5728,VALID,360,VALID,0,
2014-05-05, 00:10:04,VALID,1008.28,VALID,0,INVALID,110.612,VALID,0,VALID,24.5338,VALID,360,VALID,0,
2014-05-05, 00:11:04,VALID,1008.25,VALID,0,INVALID,110.566,VALID,0,VALID,24.5125,VALID,360,VALID,0,
2014-05-05, 00:12:04,VALID,1008.26,VALID,0,INVALID,110.566,VALID,0,VALID,24.4949,VALID,360,VALID,0,
2014-05-05, 00:13:04,VALID,1008.23,VALID,0,INVALID,110.566,VALID,0,VALID,24.4559,VALID,360,VALID,0,
2014-05-05, 00:14:04,VALID,1008.27,VALID,0,INVALID,110.558,VALID,0,VALID,24.4169,VALID,360,VALID,0,
2014-05-05, 00:15:04,VALID,1008.24,VALID,0,INVALID,110.558,VALID,0,VALID,24.3956,VALID,360,VALID,0,
2014-05-05, 00:16:04,VALID,1008.21,VALID,0,INVALID,110.573,VALID,0,VALID,24.3566,VALID,360,VALID,0,
2014-05-05, 00:17:04,VALID,1008.24,VALID,0,INVALID,110.551,VALID,0,VALID,24.3584,VALID,360,VALID,0,
2014-05-05, 00:18:04,VALID,1008.24,VALID,0,INVALID,110.573,VALID,0,VALID,24.3176,VALID,360,VALID,0,
2014-05-05, 00:19:04,VALID,1008.2,VALID,0,INVALID,110.581,VALID,0,VALID,24.3194,VALID,360,VALID,0,
2014-05-05, 00:20:04,VALID,1008.22,VALID,0,INVALID,110.596,VALID,0,VALID,24.3194,VALID,360,VALID,0,
2014-05-05, 00:21:04,VALID,1008.21,VALID,0,INVALID,110.612,VALID,0,VALID,24.3,VALID,360,VALID,0,
2014-05-05, 00:22:04,VALID,1008.2,VALID,0,INVALID,110.642,VALID,0,VALID,24.2805,VALID,360,VALID,0,
2014-05-05, 00:23:04,VALID,1008.22,VALID,0,INVALID,110.673,VALID,0,VALID,24.2805,VALID,360,VALID,0,
2014-05-05, 00:24:04,VALID,1008.21,VALID,0,INVALID,110.68,VALID,0,VALID,24.261,VALID,360,VALID,0,
2014-05-05, 00:25:04,VALID,1008.21,VALID,0,INVALID,110.703,VALID,0,VALID,24.261,VALID,360,VALID,0,
2014-05-05, 00:26:04,VALID,1008.21,VALID,0,INVALID,110.703,VALID,0,VALID,24.2805,VALID,360,VALID,0,
2014-05-05, 00:27:04,VALID,1008.22,VALID,0,INVALID,110.695,VALID,0,VALID,24.3,VALID,360,VALID,0,
2014-05-05, 00:28:04,VALID,1008.24,VALID,0,INVALID,110.703,VALID,0,VALID,24.2981,VALID,360,VALID,0,
2014-05-05, 00:29:04,VALID,1008.23,VALID,0,INVALID,110.734,VALID,0,VALID,24.3176,VALID,360,VALID,0,
2014-05-05, 00:30:04,VALID,1008.24,VALID,0,INVALID,110.718,VALID,0,VALID,24.3176,VALID,360,VALID,0,
2014-05-05, 00:31:04,VALID,1008.27,VALID,0,INVALID,110.764,VALID,0,VALID,24.3389,VALID,360,VALID,0,
2014-05-05, 00:32:04,VALID,1008.25,VALID,0,INVALID,110.734,VALID,0,VALID,24.3389,VALID,360,VALID,0,
2014-05-05, 00:33:04,VALID,1008.25,VALID,0,INVALID,110.734,VALID,0,VALID,24.3371,VALID,360,VALID,0,
2014-05-05, 00:34:04,VALID,1008.27,VALID,0,INVALID,110.764,VALID,0,VALID,24.3371,VALID,360,VALID,0,
2014-05-05, 00:35:04,VALID,1008.27,VALID,0,INVALID,110.741,VALID,0,VALID,24.3371,VALID,360,VALID,0,
2014-05-05, 00:36:04,VALID,1008.25,VALID,0,INVALID,110.764,VALID,0,VALID,24.3779,VALID,360,VALID,0,
2014-05-05, 00:37:04,VALID,1008.25,VALID,0,INVALID,110.734,VALID,0,VALID,24.3566,VALID,360,VALID,0,
2014-05-05, 00:38:04,VALID,1008.24,VALID,0,INVALID,110.772,VALID,0,VALID,24.3779,VALID,360,VALID,0,
2014-05-05, 00:39:04,VALID,1008.2,VALID,0,INVALID,110.787,VALID,0,VALID,24.3584,VALID,360,VALID,0,
2014-05-05, 00:40:04,VALID,1008.2,VALID,0,INVALID,110.772,VALID,0,VALID,24.3389,VALID,360,VALID,0,
2014-05-05, 00:41:04,VALID,1008.22,VALID,0,INVALID,110.787,VALID,0,VALID,24.2981,VALID,360,VALID,0,
2014-05-05, 00:42:04,VALID,1008.2,VALID,0,INVALID,110.764,VALID,0,VALID,24.3389,VALID,360,VALID,0,
2014-05-05, 00:43:04,VALID,1008.26,VALID,0,INVALID,110.779,VALID,0,VALID,24.3194,VALID,360,VALID,0,
2014-05-05, 00:44:04,VALID,1008.22,VALID,0,INVALID,110.802,VALID,0,VALID,24.2981,VALID,360,VALID,0,
2014-05-05, 00:45:04,VALID,1008.23,VALID,0,INVALID,110.802,VALID,0,VALID,24.3,VALID,360,VALID,0,
2014-05-05, 00:46:04,VALID,1008.25,VALID,0,INVALID,110.81,VALID,0,VALID,24.2591,VALID,360,VALID,0,
2014-05-05, 00:47:04,VALID,1008.26,VALID,0,INVALID,110.817,VALID,0,VALID,24.2415,VALID,360,VALID,0,
2014-05-05, 00:48:04,VALID,1008.28,VALID,0,INVALID,110.833,VALID,0,VALID,24.2007,VALID,360,VALID,0,
2014-05-05, 00:49:04,VALID,1008.27,VALID,0,INVALID,110.817,VALID,0,VALID,24.183,VALID,360,VALID,0,
2014-05-05, 00:50:04,VALID,1008.28,VALID,0,INVALID,110.833,VALID,0,VALID,24.1635,VALID,360,VALID,0,
2014-05-05, 00:51:04,VALID,1008.27,VALID,0,INVALID,110.817,VALID,0,VALID,24.1635,VALID,360,VALID,0,
2014-05-05, 00:52:04,VALID,1008.24,VALID,0,INVALID,110.795,VALID,0,VALID,24.1422,VALID,360,VALID,0,
2014-05-05, 00:53:04,VALID,1008.23,VALID,0,INVALID,110.825,VALID,0,VALID,24.1635,VALID,360,VALID,0,
2014-05-05, 00:54:04,VALID,1008.2,VALID,0,INVALID,110.787,VALID,0,VALID,24.144,VALID,360,VALID,0,
2014-05-05, 00:55:05,VALID,1008.25,VALID,0,INVALID,110.787,VALID,0,VALID,24.1227,VALID,360,VALID,0,
2014-05-05, 00:56:05,VALID,1008.21,VALID,0,INVALID,110.81,VALID,0,VALID,24.1245,VALID,360,VALID,0,
2014-05-05, 00:57:05,VALID,1008.24,VALID,0,INVALID,110.81,VALID,0,VALID,24.1227,VALID,360,VALID,0,
2014-05-05, 00:58:05,VALID,1008.22,VALID,0,INVALID,110.787,VALID,0,VALID,24.144,VALID,360,VALID,0,
2014-05-05, 00:59:05,VALID,1008.21,VALID,0,INVALID,110.802,VALID,0,VALID,24.1227,VALID,360,VALID,0,
2014-05-05, 01:00:05,VALID,1008.2,VALID,0,INVALID,110.825,VALID,0,VALID,24.1032,VALID,360,VALID,0,
2014-05-05, 01:01:05,VALID,1008.19,VALID,0,INVALID,110.81,VALID,0,VALID,24.1245,VALID,360,VALID,0,
2014-05-05, 01:02:05,VALID,1008.17,VALID,0,INVALID,110.84,VALID,0,VALID,24.0837,VALID,360,VALID,0,
2014-05-05, 01:03:05,VALID,1008.16,VALID,0,INVALID,110.817,VALID,0,VALID,24.0661,VALID,360,VALID,0,
2014-05-05, 01:04:05,VALID,1008.12,VALID,0,INVALID,110.802,VALID,0,VALID,24.0643,VALID,360,VALID,0,
2014-05-05, 01:05:05,VALID,1008.08,VALID,0,INVALID,110.81,VALID,0,VALID,24.0661,VALID,360,VALID,0,
2014-05-05, 01:06:05,VALID,1008.04,VALID,0,INVALID,110.848,VALID,0,VALID,24.0448,VALID,360,VALID,0,
2014-05-05, 01:07:05,VALID,1008.04,VALID,0,INVALID,110.795,VALID,0,VALID,24.0253,VALID,360,VALID,0,
2014-05-05, 01:08:05,VALID,1008,VALID,0,INVALID,110.833,VALID,0,VALID,24.0253,VALID,360,VALID,0,
2014-05-05, 01:09:05,VALID,1008.03,VALID,0,INVALID,110.848,VALID,0,VALID,24.0466,VALID,360,VALID,0,
2014-05-05, 01:10:05,VALID,1008,VALID,0,INVALID,110.81,VALID,0,VALID,24.0466,VALID,360,VALID,0,
2014-05-05, 01:11:05,VALID,1007.99,VALID,0,INVALID,110.825,VALID,0,VALID,24.0253,VALID,360,VALID,0,
2014-05-05, 01:12:05,VALID,1007.97,VALID,0,INVALID,110.817,VALID,0,VALID,24.0466,VALID,360,VALID,0,
2014-05-05, 01:13:05,VALID,1007.99,VALID,0,INVALID,110.787,VALID,0,VALID,24.0448,VALID,360,VALID,0,
2014-05-05, 01:14:05,VALID,1007.97,VALID,0,INVALID,110.779,VALID,0,VALID,24.0661,VALID,360,VALID,0,
2014-05-05, 01:15:05,VALID,1007.99,VALID,0,INVALID,110.833,VALID,0,VALID,24.0253,VALID,360,VALID,0,
2014-05-05, 01:16:05,VALID,1007.98,VALID,0,INVALID,110.795,VALID,0,VALID,24.0253,VALID,360,VALID,0,
2014-05-05, 01:17:05,VALID,1008.01,VALID,0,INVALID,110.81,VALID,0,VALID,24.0448,VALID,360,VALID,0,
2014-05-05, 01:18:05,VALID,1008.02,VALID,0,INVALID,110.787,VALID,0,VALID,24.0466,VALID,360,VALID,0,
2014-05-05, 01:19:05,VALID,1008.01,VALID,0,INVALID,110.787,VALID,0,VALID,24.0466,VALID,360,VALID,0,
2014-05-05, 01:20:05,VALID,1007.99,VALID,0,INVALID,110.802,VALID,0,VALID,24.0253,VALID,360,VALID,0,
2014-05-05, 01:21:05,VALID,1008.01,VALID,0,INVALID,110.795,VALID,0,VALID,24.0466,VALID,360,VALID,0,
2014-05-05, 01:22:05,VALID,1008.02,VALID,0,INVALID,110.817,VALID,0,VALID,24.0253,VALID,360,VALID,0,
2014-05-05, 01:23:05,VALID,1008,VALID,0,INVALID,110.779,VALID,0,VALID,24.0253,VALID,360,VALID,0,
2014-05-05, 01:24:05,VALID,1008,VALID,0,INVALID,110.802,VALID,0,VALID,24.0058,VALID,360,VALID,0,
2014-05-05, 01:25:05,VALID,1007.98,VALID,0,INVALID,110.833,VALID,0,VALID,24.0271,VALID,360,VALID,0,
2014-05-05, 01:26:05,VALID,1007.96,VALID,0,INVALID,110.84,VALID,0,VALID,23.9863,VALID,360,VALID,0,
2014-05-05, 01:27:05,VALID,1007.94,VALID,0,INVALID,110.863,VALID,0,VALID,24.0076,VALID,360,VALID,0,
2014-05-05, 01:28:05,VALID,1007.93,VALID,0,INVALID,110.871,VALID,0,VALID,23.9473,VALID,360,VALID,0,
2014-05-05, 01:29:05,VALID,1007.94,VALID,0,INVALID,110.863,VALID,0,VALID,23.9881,VALID,360,VALID,0,
2014-05-05, 01:30:05,VALID,1007.91,VALID,0,INVALID,110.863,VALID,0,VALID,23.9473,VALID,360,VALID,0,
2014-05-05, 01:31:05,VALID,1007.92,VALID,0,INVALID,110.886,VALID,0,VALID,23.9686,VALID,360,VALID,0,
2014-05-05, 01:32:05,VALID,1007.91,VALID,0,INVALID,110.848,VALID,0,VALID,23.9473,VALID,360,VALID,0,
2014-05-05, 01:33:05,VALID,1007.94,VALID,0,INVALID,110.817,VALID,0,VALID,23.9668,VALID,360,VALID,0,
2014-05-05, 01:34:05,VALID,1007.92,VALID,0,INVALID,110.817,VALID,0,VALID,23.9863,VALID,360,VALID,0,
2014-05-05, 01:35:05,VALID,1007.94,VALID,0,INVALID,110.787,VALID,0,VALID,24.0076,VALID,360,VALID,0,
2014-05-05, 01:36:05,VALID,1007.93,VALID,0,INVALID,110.772,VALID,0,VALID,23.9863,VALID,360,VALID,0,
2014-05-05, 01:37:05,VALID,1007.92,VALID,0,INVALID,110.756,VALID,0,VALID,24.0271,VALID,360,VALID,0,
2014-05-05, 01:38:05,VALID,1007.92,VALID,0,INVALID,110.779,VALID,0,VALID,24.0253,VALID,360,VALID,0,
2014-05-05, 01:39:05,VALID,1007.91,VALID,0,INVALID,110.81,VALID,0,VALID,24.0271,VALID,360,VALID,0,
2014-05-05, 01:40:05,VALID,1007.85,VALID,0,INVALID,110.795,VALID,0,VALID,23.9863,VALID,360,VALID,0,
2014-05-05, 01:41:05,VALID,1007.85,VALID,0,INVALID,110.833,VALID,0,VALID,24.0076,VALID,360,VALID,0,
2014-05-05, 01:42:05,VALID,1007.81,VALID,0,INVALID,110.833,VALID,0,VALID,23.9881,VALID,360,VALID,0,
2014-05-05, 01:43:05,VALID,1007.83,VALID,0,INVALID,110.856,VALID,0,VALID,23.9881,VALID,360,VALID,0,
2014-05-05, 01:44:05,VALID,1007.82,VALID,0,INVALID,110.84,VALID,0,VALID,23.9491,VALID,360,VALID,0,
2014-05-05, 01:45:05,VALID,1007.81,VALID,0,INVALID,110.848,VALID,0,VALID,23.9297,VALID,360,VALID,0,
2014-05-05, 01:46:05,VALID,1007.81,VALID,0,INVALID,110.878,VALID,0,VALID,23.9297,VALID,360,VALID,0,
2014-05-05, 01:47:05,VALID,1007.8,VALID,0,INVALID,110.863,VALID,0,VALID,23.9102,VALID,360,VALID,0,
2014-05-05, 01:48:05,VALID,1007.79,VALID,0,INVALID,110.894,VALID,0,VALID,23.9102,VALID,360,VALID,0,
2014-05-05, 01:49:05,VALID,1007.78,VALID,0,INVALID,110.894,VALID,0,VALID,23.9102,VALID,360,VALID,0,
2014-05-05, 01:50:05,VALID,1007.77,VALID,0,INVALID,110.886,VALID,0,VALID,23.9297,VALID,360,VALID,0,
2014-05-05, 01:51:05,VALID,1007.79,VALID,0,INVALID,110.833,VALID,0,VALID,23.9473,VALID,360,VALID,0,
2014-05-05, 01:52:05,VALID,1007.79,VALID,0,INVALID,110.779,VALID,0,VALID,23.9881,VALID,360,VALID,0,
2014-05-05, 01:53:05,VALID,1007.79,VALID,0,INVALID,110.756,VALID,0,VALID,24.0271,VALID,360,VALID,0,
2014-05-05, 01:54:05,VALID,1007.79,VALID,0,INVALID,110.756,VALID,0,VALID,24.0271,VALID,360,VALID,0,
2014-05-05, 01:55:05,VALID,1007.81,VALID,0,INVALID,110.718,VALID,0,VALID,24.0856,VALID,360,VALID,0,
2014-05-05, 01:56:05,VALID,1007.81,VALID,0,INVALID,110.741,VALID,0,VALID,24.0856,VALID,360,VALID,0,
2014-05-05, 01:57:05,VALID,1007.79,VALID,0,INVALID,110.741,VALID,0,VALID,24.0856,VALID,360,VALID,0,
2014-05-05, 01:58:05,VALID,1007.8,VALID,0,INVALID,110.787,VALID,0,VALID,24.0856,VALID,360,VALID,0,
2014-05-05, 01:59:05,VALID,1007.78,VALID,0,INVALID,110.817,VALID,0,VALID,24.0661,VALID,360,VALID,0,
2014-05-05, 02:00:05,VALID,1007.79,VALID,0,INVALID,110.871,VALID,0,VALID,24.0466,VALID,360,VALID,0,
2014-05-05, 02:01:05,VALID,1007.79,VALID,0,INVALID,110.871,VALID,0,VALID,24.0271,VALID,360,VALID,0,
2014-05-05, 02:02:05,VALID,1007.78,VALID,0,INVALID,110.878,VALID,0,VALID,24.0271,VALID,360,VALID,0,
2014-05-05, 02:03:05,VALID,1007.81,VALID,0,INVALID,110.909,VALID,0,VALID,24.0058,VALID,360,VALID,0,
2014-05-05, 02:04:05,VALID,1007.8,VALID,0,INVALID,110.909,VALID,0,VALID,24.0058,VALID,360,VALID,0,
2014-05-05, 02:05:05,VALID,1007.84,VALID,0,INVALID,110.901,VALID,0,VALID,24.0253,VALID,360,VALID,0,
2014-05-05, 02:06:05,VALID,1007.83,VALID,0,INVALID,110.894,VALID,0,VALID,24.0058,VALID,360,VALID,0,
2014-05-05, 02:07:05,VALID,1007.88,VALID,0,INVALID,110.917,VALID,0,VALID,23.9863,VALID,360,VALID,0,
2014-05-05, 02:08:05,VALID,1007.89,VALID,0,INVALID,110.939,VALID,0,VALID,23.9863,VALID,360,VALID,0,
2014-05-05, 02:09:05,VALID,1007.92,VALID,0,INVALID,110.978,VALID,0,VALID,23.9668,VALID,360,VALID,0,
2014-05-05, 02:10:05,VALID,1007.96,VALID,0,INVALID,110.993,VALID,0,VALID,23.9473,VALID,360,VALID,0,
2014-05-05, 02:11:05,VALID,1007.96,VALID,0,INVALID,110.993,VALID,0,VALID,23.9278,VALID,360,VALID,0,
2014-05-05, 02:12:05,VALID,1007.95,VALID,0,INVALID,110.993,VALID,0,VALID,23.9297,VALID,360,VALID,0,
2014-05-05, 02:13:05,VALID,1007.93,VALID,0,INVALID,110.993,VALID,0,VALID,23.9084,VALID,360,VALID,0,
2014-05-05, 02:14:05,VALID,1007.89,VALID,0,INVALID,110.985,VALID,0,VALID,23.9102,VALID,360,VALID,0,
2014-05-05, 02:15:05,VALID,1007.91,VALID,0,INVALID,110.985,VALID,0,VALID,23.9102,VALID,360,VALID,0,
2014-05-05, 02:16:05,VALID,1007.93,VALID,0,INVALID,110.978,VALID,0,VALID,23.9297,VALID,360,VALID,0,
2014-05-05, 02:17:05,VALID,1007.91,VALID,0,INVALID,110.97,VALID,0,VALID,23.9102,VALID,360,VALID,0,
2014-05-05, 02:18:05,VALID,1007.9,VALID,0,INVALID,110.962,VALID,0,VALID,23.8907,VALID,360,VALID,0,
2014-05-05, 02:19:05,VALID,1007.92,VALID,0,INVALID,110.97,VALID,0,VALID,23.9297,VALID,360,VALID,0,
2014-05-05, 02:20:05,VALID,1007.91,VALID,0,INVALID,110.939,VALID,0,VALID,23.9084,VALID,360,VALID,0,
2014-05-05, 02:21:05,VALID,1007.91,VALID,0,INVALID,110.939,VALID,0,VALID,23.9491,VALID,360,VALID,0,
2014-05-05, 02:22:05,VALID,1007.93,VALID,0,INVALID,110.924,VALID,0,VALID,23.9491,VALID,360,VALID,0,
2014-05-05, 02:23:05,VALID,1007.9,VALID,0,INVALID,110.909,VALID,0,VALID,23.9278,VALID,360,VALID,0,
2014-05-05, 02:24:05,VALID,1007.91,VALID,0,INVALID,110.962,VALID,0,VALID,23.9473,VALID,360,VALID,0,
2014-05-05, 02:25:05,VALID,1007.92,VALID,0,INVALID,110.955,VALID,0,VALID,23.9686,VALID,360,VALID,0,
2014-05-05, 02:26:05,VALID,1007.92,VALID,0,INVALID,110.924,VALID,0,VALID,23.9686,VALID,360,VALID,0,
2014-05-05, 02:27:05,VALID,1007.94,VALID,0,INVALID,110.932,VALID,0,VALID,23.9863,VALID,360,VALID,0,
2014-05-05, 02:28:05,VALID,1007.93,VALID,0,INVALID,110.917,VALID,0,VALID,24.0271,VALID,360,VALID,0,
2014-05-05, 02:29:05,VALID,1007.96,VALID,0,INVALID,110.894,VALID,0,VALID,24.0058,VALID,360,VALID,0,
2014-05-05, 02:30:05,VALID,1007.95,VALID,0,INVALID,110.901,VALID,0,VALID,24.0253,VALID,360,VALID,0,
2014-05-05, 02:31:05,VALID,1007.95,VALID,0,INVALID,110.878,VALID,0,VALID,24.0661,VALID,360,VALID,0,
2014-05-05, 02:32:05,VALID,1007.96,VALID,0,INVALID,110.886,VALID,0,VALID,24.0661,VALID,360,VALID,0,
2014-05-05, 02:33:05,VALID,1007.96,VALID,0,INVALID,110.924,VALID,0,VALID,24.0643,VALID,360,VALID,0,
2014-05-05, 02:34:05,VALID,1007.93,VALID,0,INVALID,110.917,VALID,0,VALID,24.0643,VALID,360,VALID,0,
2014-05-05, 02:35:05,VALID,1007.91,VALID,0,INVALID,110.955,VALID,0,VALID,24.0643,VALID,360,VALID,0,
2014-05-05, 02:36:05,VALID,1007.89,VALID,0,INVALID,110.978,VALID,0,VALID,24.0643,VALID,360,VALID,0,
2014-05-05, 02:37:05,VALID,1007.9,VALID,0,INVALID,110.985,VALID,0,VALID,24.0253,VALID,360,VALID,0,
2014-05-05, 02:38:05,VALID,1007.86,VALID,0,INVALID,110.993,VALID,0,VALID,24.0271,VALID,360,VALID,0,
2014-05-05, 02:39:05,VALID,1007.88,VALID,0,INVALID,111,VALID,0,VALID,24.0271,VALID,360,VALID,0,
2014-05-05, 02:40:05,VALID,1007.88,VALID,0,INVALID,111.008,VALID,0,VALID,24.0058,VALID,360,VALID,0,
2014-05-05, 02:41:05,VALID,1007.84,VALID,0,INVALID,111.008,VALID,0,VALID,24.0058,VALID,360,VALID,0,
2014-05-05, 02:42:05,VALID,1007.84,VALID,0,INVALID,111,VALID,0,VALID,24.0466,VALID,360,VALID,0,
2014-05-05, 02:43:05,VALID,1007.82,VALID,0,INVALID,110.962,VALID,0,VALID,24.0253,VALID,360,VALID,0,
2014-05-05, 02:44:05,VALID,1007.79,VALID,0,INVALID,110.985,VALID,0,VALID,24.0661,VALID,360,VALID,0,
2014-05-05, 02:45:05,VALID,1007.79,VALID,0,INVALID,110.993,VALID,0,VALID,24.0661,VALID,360,VALID,0,
2014-05-05, 02:46:05,VALID,1007.77,VALID,0,INVALID,110.985,VALID,0,VALID,24.0661,VALID,360,VALID,0,
2014-05-05, 02:47:05,VALID,1007.73,VALID,0,INVALID,111,VALID,0,VALID,24.0643,VALID,360,VALID,0,
2014-05-05, 02:48:05,VALID,1007.7,VALID,0,INVALID,111,VALID,0,VALID,24.0661,VALID,360,VALID,0,
2014-05-05, 02:49:05,VALID,1007.68,VALID,0,INVALID,111,VALID,0,VALID,24.0661,VALID,360,VALID,0,
2014-05-05, 02:50:05,VALID,1007.66,VALID,0,INVALID,111.008,VALID,0,VALID,24.0661,VALID,360,VALID,0,
2014-05-05, 02:51:05,VALID,1007.65,VALID,0,INVALID,111.008,VALID,0,VALID,24.0466,VALID,360,VALID,0,
2014-05-05, 02:52:05,VALID,1007.63,VALID,0,INVALID,111.016,VALID,0,VALID,24.0466,VALID,360,VALID,0,
2014-05-05, 02:53:05,VALID,1007.6,VALID,0,INVALID,111.046,VALID,0,VALID,24.0253,VALID,360,VALID,0,
2014-05-05, 02:54:05,VALID,1007.66,VALID,0,INVALID,111.061,VALID,0,VALID,24.0058,VALID,360,VALID,0,
2014-05-05, 02:55:05,VALID,1007.64,VALID,0,INVALID,111.054,VALID,0,VALID,24.0271,VALID,360,VALID,0,
2014-05-05, 02:56:05,VALID,1007.68,VALID,0,INVALID,111.054,VALID,0,VALID,24.0271,VALID,360,VALID,0,
2014-05-05, 02:57:05,VALID,1007.69,VALID,0,INVALID,111.046,VALID,0,VALID,24.0058,VALID,360,VALID,0,
2014-05-05, 02:58:05,VALID,1007.71,VALID,0,INVALID,111.046,VALID,0,VALID,23.9863,VALID,360,VALID,0,
2014-05-05, 02:59:05,VALID,1007.71,VALID,0,INVALID,111.077,VALID,0,VALID,23.9668,VALID,360,VALID,0,
2014-05-05, 03:00:05,VALID,1007.73,VALID,0,INVALID,111.092,VALID,0,VALID,23.9668,VALID,360,VALID,0,
2014-05-05, 03:01:05,VALID,1007.71,VALID,0,INVALID,111.069,VALID,0,VALID,23.9686,VALID,360,VALID,0,
2014-05-05, 03:02:05,VALID,1007.72,VALID,0,INVALID,111.092,VALID,0,VALID,23.9686,VALID,360,VALID,0,
2014-05-05, 03:03:05,VALID,1007.69,VALID,0,INVALID,111.084,VALID,0,VALID,23.9491,VALID,360,VALID,0,
2014-05-05, 03:04:05,VALID,1007.7,VALID,0,INVALID,111.1,VALID,0,VALID,23.9297,VALID,360,VALID,0,
2014-05-05, 03:05:05,VALID,1007.7,VALID,0,INVALID,111.1,VALID,0,VALID,23.9102,VALID,360,VALID,0,
2014-05-05, 03:06:05,VALID,1007.68,VALID,0,INVALID,111.107,VALID,0,VALID,23.8694,VALID,360,VALID,0,
2014-05-05, 03:07:05,VALID,1007.69,VALID,0,INVALID,111.1,VALID,0,VALID,23.8889,VALID,360,VALID,0,
2014-05-05, 03:08:05,VALID,1007.69,VALID,0,INVALID,111.084,VALID,0,VALID,23.8907,VALID,360,VALID,0,
2014-05-05, 03:09:05,VALID,1007.69,VALID,0,INVALID,111.069,VALID,0,VALID,23.9102,VALID,360,VALID,0,
2014-05-05, 03:10:05,VALID,1007.67,VALID,0,INVALID,111.107,VALID,0,VALID,23.9102,VALID,360,VALID,0,
2014-05-05, 03:11:05,VALID,1007.67,VALID,0,INVALID,111.084,VALID,0,VALID,23.9102,VALID,360,VALID,0,
2014-05-05, 03:12:05,VALID,1007.63,VALID,0,INVALID,111.077,VALID,0,VALID,23.9102,VALID,360,VALID,0,
2014-05-05, 03:13:05,VALID,1007.62,VALID,0,INVALID,111.061,VALID,0,VALID,23.9102,VALID,360,VALID,0,
2014-05-05, 03:14:05,VALID,1007.59,VALID,0,INVALID,111.122,VALID,0,VALID,23.8907,VALID,360,VALID,0,
2014-05-05, 03:15:05,VALID,1007.61,VALID,0,INVALID,111.1,VALID,0,VALID,23.9102,VALID,360,VALID,0,
2014-05-05, 03:16:05,VALID,1007.58,VALID,0,INVALID,111.084,VALID,0,VALID,23.8907,VALID,360,VALID,0,
2014-05-05, 03:17:05,VALID,1007.59,VALID,0,INVALID,111.069,VALID,0,VALID,23.9102,VALID,360,VALID,0,
2014-05-05, 03:18:05,VALID,1007.59,VALID,0,INVALID,111.092,VALID,0,VALID,23.9084,VALID,360,VALID,0,
2014-05-05, 03:19:05,VALID,1007.56,VALID,0,INVALID,111.115,VALID,0,VALID,23.9102,VALID,360,VALID,0,
2014-05-05, 03:20:05,VALID,1007.57,VALID,0,INVALID,111.122,VALID,0,VALID,23.8907,VALID,360,VALID,0,
2014-05-05, 03:21:05,VALID,1007.56,VALID,0,INVALID,111.092,VALID,0,VALID,23.8712,VALID,360,VALID,0,
2014-05-05, 03:22:05,VALID,1007.58,VALID,0,INVALID,111.092,VALID,0,VALID,23.8517,VALID,360,VALID,0,
2014-05-05, 03:23:05,VALID,1007.57,VALID,0,INVALID,111.122,VALID,0,VALID,23.8322,VALID,360,VALID,0,
2014-05-05, 03:24:05,VALID,1007.54,VALID,0,INVALID,111.077,VALID,0,VALID,23.7914,VALID,360,VALID,0,
2014-05-05, 03:25:05,VALID,1007.53,VALID,0,INVALID,111.13,VALID,0,VALID,23.7932,VALID,360,VALID,0,
2014-05-05, 03:26:05,VALID,1007.49,VALID,0,INVALID,111.107,VALID,0,VALID,23.7738,VALID,360,VALID,0,
2014-05-05, 03:27:05,VALID,1007.49,VALID,0,INVALID,111.1,VALID,0,VALID,23.7738,VALID,360,VALID,0,
2014-05-05, 03:28:05,VALID,1007.5,VALID,0,INVALID,111.13,VALID,0,VALID,23.795,VALID,360,VALID,0,
2014-05-05, 03:29:05,VALID,1007.49,VALID,0,INVALID,111.115,VALID,0,VALID,23.7738,VALID,360,VALID,0,
2014-05-05, 03:30:05,VALID,1007.46,VALID,0,INVALID,111.115,VALID,0,VALID,23.7525,VALID,360,VALID,0,
2014-05-05, 03:31:05,VALID,1007.45,VALID,0,INVALID,111.107,VALID,0,VALID,23.7543,VALID,360,VALID,0,
2014-05-05, 03:32:05,VALID,1007.45,VALID,0,INVALID,111.115,VALID,0,VALID,23.7543,VALID,360,VALID,0,
2014-05-05, 03:33:05,VALID,1007.45,VALID,0,INVALID,111.092,VALID,0,VALID,23.7738,VALID,360,VALID,0,
2014-05-05, 03:34:05,VALID,1007.48,VALID,0,INVALID,111.023,VALID,0,VALID,23.8127,VALID,360,VALID,0,
2014-05-05, 03:35:04,VALID,1007.51,VALID,0,INVALID,111.031,VALID,0,VALID,23.8127,VALID,360,VALID,0,
2014-05-05, 03:36:04,VALID,1007.52,VALID,0,INVALID,111.069,VALID,0,VALID,23.8322,VALID,360,VALID,0,
2014-05-05, 03:37:04,VALID,1007.54,VALID,0,INVALID,111.054,VALID,0,VALID,23.7932,VALID,360,VALID,0,
2014-05-05, 03:38:04,VALID,1007.52,VALID,0,INVALID,111.084,VALID,0,VALID,23.7738,VALID,360,VALID,0,
2014-05-05, 03:39:04,VALID,1007.51,VALID,0,INVALID,111.092,VALID,0,VALID,23.7348,VALID,360,VALID,0,
2014-05-05, 03:40:04,VALID,1007.49,VALID,0,INVALID,111.1,VALID,0,VALID,23.7348,VALID,360,VALID,0,
2014-05-05, 03:41:04,VALID,1007.49,VALID,0,INVALID,111.084,VALID,0,VALID,23.7153,VALID,360,VALID,0,
2014-05-05, 03:42:04,VALID,1007.5,VALID,0,INVALID,111.1,VALID,0,VALID,23.6958,VALID,360,VALID,0,
2014-05-05, 03:43:04,VALID,1007.48,VALID,0,INVALID,111.092,VALID,0,VALID,23.6958,VALID,360,VALID,0,
2014-05-05, 03:44:04,VALID,1007.5,VALID,0,INVALID,111.084,VALID,0,VALID,23.6958,VALID,360,VALID,0,
2014-05-05, 03:45:04,VALID,1007.52,VALID,0,INVALID,111.061,VALID,0,VALID,23.694,VALID,360,VALID,0,
2014-05-05, 03:46:04,VALID,1007.52,VALID,0,INVALID,111.008,VALID,0,VALID,23.7135,VALID,360,VALID,0,
2014-05-05, 03:47:04,VALID,1007.55,VALID,0,INVALID,111.023,VALID,0,VALID,23.7348,VALID,360,VALID,0,
2014-05-05, 03:48:04,VALID,1007.57,VALID,0,INVALID,111.016,VALID,0,VALID,23.7348,VALID,360,VALID,0,
2014-05-05, 03:49:04,VALID,1007.58,VALID,0,INVALID,110.985,VALID,0,VALID,23.7153,VALID,360,VALID,0,
2014-05-05, 03:50:04,VALID,1007.59,VALID,0,INVALID,111.016,VALID,0,VALID,23.7153,VALID,360,VALID,0,
2014-05-05, 03:51:04,VALID,1007.58,VALID,0,INVALID,110.97,VALID,0,VALID,23.7153,VALID,360,VALID,0,
2014-05-05, 03:52:04,VALID,1007.58,VALID,0,INVALID,110.985,VALID,0,VALID,23.694,VALID,360,VALID,0,
2014-05-05, 03:53:04,VALID,1007.59,VALID,0,INVALID,110.985,VALID,0,VALID,23.6958,VALID,360,VALID,0,
2014-05-05, 03:54:04,VALID,1007.58,VALID,0,INVALID,110.985,VALID,0,VALID,23.6958,VALID,360,VALID,0,
2014-05-05, 03:55:04,VALID,1007.57,VALID,0,INVALID,111,VALID,0,VALID,23.655,VALID,360,VALID,0,